Location: Buckhorn Peak
(37.6641°N, 120.1241°W)
Time: 06:46:42
(UTC+00:00)

BlueWalker 3 - Visible Passes

Search period start: 12 October 2024 00:00
Search period end: 22 October 2024 00:00
Orbit: 472 x 485 km, 53.2° (Epoch: 11 October)

Date Brightness Start Highest point End Pass type
(mag) Time Alt. Az. Time Alt. Az. Time Alt. Az.
18 Oct 4.2 13:16:24 10° NNW 13:19:04 18° NNE 13:21:43 10° ENE visible
19 Oct 4.3 12:47:39 10° NNW 12:50:08 17° NNE 12:52:37 10° ENE visible
20 Oct 4.3 12:20:00 14° N 12:21:09 16° NNE 12:23:26 10° ENE visible
21 Oct 4.6 11:52:30 14° NNE 11:52:30 14° NNE 11:54:11 10° ENE visible
21 Oct 1.9 13:26:52 10° NW 13:30:34 75° NE 13:34:14 10° SE visible
